Terminal Aerodrome Forecast
Issued by NWS Grand Forks, ND

Home | Current Version | Previous Version | Graphics & Text | Print | Product List | Glossary On
Versions: 1 2 3 4 5 6 7 8 9 10 11 12 13 14 15 16 17 18 19 20 21 22
000
FTUS43 KFGF 260500
TAFFAR
TAF
KFAR 260520Z 2606/2706 29012KT P6SM BKN040
     FM260900 VRB06KT P6SM SCT040=

USA.gov is the U.S. government's official web portal to all federal, state and local government web resources and services.